FW7501 Weather Reports


time (UTC)temp
C
wind
direction
speed
KPH
gust
KPH
rain 1hr
cm
rain 24hr
cm
rain mn
cm
humidity
%
barometer
mb
20260906004009 11 231 9.7 22.5 0.00 0.00 0.00 81 1022.3
20260906003507 11 208 9.7 22.5 0.00 0.00 0.00 81 1022.1
20260906003013 11 231 8.0 17.7 0.00 0.00 0.00 82 1022.1
20260906002509 11 241 9.7 22.5 0.00 0.00 0.00 82 1022.1
20260906002008 11 217 11.3 22.5 0.00 0.03 0.00 82 1022.0
20260906001524 11 234 11.3 19.3 0.00 0.03 0.00 82 1022.0
20260906001007 11 221 11.3 19.3 0.00 0.03 0.00 83 1021.9
20260906000514 10 237 11.3 19.3 0.00 0.03 0.00 82 1021.8
20260906000018 10 218 12.9 19.3 0.00 0.03 0.00 84 1021.8
20260905235516 10 210 12.9 19.3 0.00 0.03 0.00 84 1021.8
20260905235016 10 220 11.3 19.3 0.00 0.03 0.00 85 1021.8
20260905234518 10 237 11.3 19.3 0.00 0.03 0.00 86 1021.8
20260905234015 10 239 6.4 17.7 0.00 0.03 0.00 86 1021.9
20260905233514 10 224 8.0 19.3 0.00 0.03 0.00 86 1021.9
20260905233009 10 220 12.9 19.3 0.00 0.03 0.00 86 1021.9
20260905232510 10 218 9.7 17.7 0.00 0.03 0.00 86 1021.9
20260905232008 10 221 6.4 17.7 0.00 0.03 0.00 86 1021.9
20260905231537 10 249 11.3 17.7 0.00 0.03 0.00 86 1021.7
20260905231012 10 226 9.7 14.5 0.00 0.03 0.00 86 1021.7
20260905230507 10 232 6.4 14.5 0.00 0.03 0.00 86 1021.7
20260905230022 9 216 9.7 14.5 0.00 0.03 0.00 86 1021.6
20260905225514 9 224 6.4 16.1 0.00 0.03 0.00 86 1021.5
20260905225011 9 194 8.0 16.1 0.00 0.03 0.00 86 1021.4
20260905224600 9 212 6.4 16.1 0.00 0.05 0.00 86 1021.3
20260905224010 9 223 8.0 14.5 0.00 0.05 0.00 86 1021.2
20260905223518 9 204 8.0 12.9 0.00 0.05 0.00 86 1021.1
20260905223027 9 233 8.0 14.5 0.00 0.05 0.00 86 1021.0
20260905222509 9 225 9.7 14.5 0.00 0.05 0.00 86 1020.8
20260905222016 9 223 6.4 16.1 0.00 0.05 0.00 86 1020.8
20260905221528 9 207 8.0 16.1 0.00 0.05 0.00 86 1020.8
20260905221019 9 220 8.0 16.1 0.00 0.05 0.00 86 1020.8
20260905220510 8 195 6.4 14.5 0.00 0.05 0.00 86 1020.7
20260905220018 8 233 6.4 12.9 0.00 0.05 0.00 86 1020.7
20260905215517 8 228 6.4 14.5 0.00 0.05 0.00 86 1020.7
20260905215016 8 228 6.4 16.1 0.00 0.05 0.00 86 1020.4
20260905214515 8 224 11.3 19.3 0.00 0.05 0.00 86 1020.3
20260905214015 8 222 9.7 19.3 0.00 0.05 0.00 86 1020.3
20260905213514 8 236 9.7 20.9 0.00 0.05 0.00 86 1020.3
20260905213032 8 249 9.7 20.9 0.00 0.08 0.00 85 1020.2
20260905212517 8 208 9.7 24.1 0.00 0.08 0.00 85 1020.1
20260905212014 8 241 12.9 24.1 0.00 0.08 0.00 85 1020.1
20260905211542 8 234 11.3 25.7 0.00 0.08 0.00 85 1020.0
20260905211013 8 224 16.1 25.7 0.00 0.08 0.00 85 1019.9
20260905210511 8 226 12.9 24.1 0.00 0.08 0.00 86 1019.6
20260905210042 8 216 11.3 20.9 0.00 0.08 0.00 86 1019.5
20260905205516 8 239 8.0 16.1 0.00 0.08 0.00 86 1019.3
20260905205019 8 202 6.4 16.1 0.00 0.08 0.00 86 1019.2
20260905204518 8 220 8.0 16.1 0.00 0.08 0.00 86 1019.1
20260905204015 8 206 9.7 16.1 0.00 0.08 0.00 86 1019.1
20260905203514 8 195 9.7 19.3 0.00 0.08 0.00 86 1018.9
20260905203027 8 218 12.9 19.3 0.00 0.08 0.00 86 1018.7
20260905202520 8 209 11.3 16.1 0.00 0.08 0.00 85 1018.7
20260905202004 8 200 11.3 16.1 0.00 0.08 0.00 85 1018.6
20260905201507 8 196 8.0 14.5 0.00 0.08 0.00 85 1018.6
20260905201006 8 189 11.3 17.7 0.00 0.08 0.00 85 1018.5
20260905200509 8 189 8.0 17.7 0.00 0.08 0.00 85 1018.4
20260905200018 8 199 12.9 20.9 0.00 0.08 0.00 84 1018.4
20260905195506 8 211 11.3 22.5 0.00 0.08 0.00 84 1018.4
20260905195006 8 217 11.3 22.5 0.00 0.08 0.00 84 1018.4
20260905194509 8 209 6.4 20.9 0.00 0.08 0.00 84 1018.4
20260905194008 8 204 11.3 20.9 0.00 0.08 0.00 84 1018.4
20260905193507 8 228 12.9 20.9 0.00 0.08 0.00 84 1018.3
20260905193010 8 211 11.3 19.3 0.00 0.08 0.00 83 1018.2
20260905192508 9 221 11.3 19.3 0.00 0.08 0.00 83 1018.2
20260905192009 9 238 12.9 24.1 0.00 0.08 0.00 83 1018.2
20260905191508 9 229 8.0 24.1 0.00 0.10 0.00 83 1018.2
20260905191004 9 251 12.9 24.1 0.00 0.10 0.00 83 1018.1
20260905190503 9 214 12.9 24.1 0.00 0.10 0.00 83 1018.0
20260905190008 9 217 14.5 22.5 0.00 0.10 0.00 83 1017.9
20260905185507 9 223 14.5 22.5 0.00 0.10 0.00 83 1017.9
20260905185005 9 214 9.7 24.1 0.00 0.10 0.00 82 1017.8
20260905184519 9 206 14.5 24.1 0.00 0.10 0.00 82 1017.7
20260905184009 9 235 12.9 24.1 0.00 0.10 0.00 81 1017.7
20260905183508 9 208 14.5 29.0 0.00 0.10 0.00 81 1017.5
20260905183012 9 256 16.1 29.0 0.00 0.10 0.00 80 1017.5
20260905182508 9 243 16.1 25.7 0.00 0.10 0.00 80 1017.4
20260905182008 9 234 17.7 25.7 0.00 0.10 0.00 80 1017.4
20260905181511 9 243 9.7 24.1 0.00 0.10 0.00 80 1017.3
20260905181008 9 247 9.7 24.1 0.00 0.13 0.00 80 1017.4
20260905180505 9 232 14.5 22.5 0.00 0.13 0.00 80 1017.3
20260905180013 9 229 12.9 22.5 0.00 0.13 0.00 80 1017.1
20260905175508 9 256 12.9 24.1 0.00 0.13 0.00 80 1017.1
20260905175004 9 212 12.9 24.1 0.00 0.13 0.00 80 1017.1
20260905174510 9 249 14.5 22.5 0.00 0.13 0.00 81 1017.0
20260905174007 9 204 8.0 22.5 0.00 0.13 0.00 81 1016.8
20260905173508 9 213 9.7 22.5 0.00 0.13 0.00 81 1016.7
20260905173014 9 250 12.9 20.9 0.00 0.13 0.00 81 1016.7
20260905172511 9 245 9.7 20.9 0.00 0.13 0.00 81 1016.5
20260905172014 9 220 11.3 22.5 0.00 0.13 0.00 81 1016.4
20260905171516 9 241 16.1 22.5 0.00 0.15 0.00 81 1016.4
20260905171010 9 237 14.5 27.4 0.00 0.15 0.00 81 1016.2
20260905170508 9 231 14.5 27.4 0.00 0.15 0.00 81 1016.2
20260905170011 9 271 12.9 24.1 0.00 0.15 0.00 81 1016.1
20260905165511 9 240 14.5 25.7 0.00 0.15 0.00 82 1016.1
20260905165010 9 233 14.5 24.1 0.00 0.15 0.00 82 1015.9
20260905164526 9 239 11.3 24.1 0.00 0.15 0.00 82 1016.0
20260905164012 9 230 11.3 24.1 0.00 0.15 0.00 82 1015.9
20260905163510 9 259 11.3 25.7 0.00 0.15 0.00 82 1015.9
20260905163011 9 259 11.3 25.7 0.00 0.18 0.00 82 1015.8
20260905162507 9 237 12.9 24.1 0.00 0.18 0.00 82 1015.8
20260905162008 10 257 11.3 22.5 0.00 0.18 0.00 82 1015.8
20260905161518 10 241 12.9 27.4 0.00 0.18 0.00 82 1015.8
20260905161010 10 241 16.1 27.4 0.00 0.18 0.00 82 1015.7
20260905160511 10 251 12.9 24.1 0.00 0.18 0.00 82 1015.7
20260905160020 10 243 14.5 20.9 0.00 0.18 0.00 82 1015.6
20260905155515 10 218 8.0 19.3 0.00 0.18 0.00 82 1015.6
20260905155013 10 262 11.3 20.9 0.00 0.18 0.00 82 1015.5
20260905154527 10 289 11.3 20.9 0.00 0.18 0.00 82 1015.4
20260905154016 9 259 14.5 20.9 0.00 0.18 0.00 83 1015.2
20260905153516 9 254 9.7 19.3 0.00 0.18 0.00 83 1015.2
20260905153023 9 230 9.7 19.3 0.00 0.18 0.00 83 1015.2
20260905152515 9 237 11.3 22.5 0.00 0.18 0.00 83 1015.1
20260905152014 9 232 12.9 22.5 0.00 0.18 0.00 83 1015.0
20260905151519 9 256 11.3 19.3 0.00 0.18 0.00 83 1015.0
20260905151013 9 242 11.3 22.5 0.00 0.18 0.00 83 1014.9
20260905150514 9 273 12.9 25.7 0.00 0.18 0.00 83 1014.9
20260905150020 9 249 17.7 25.7 0.00 0.18 0.00 83 1014.9
20260905145514 9 273 12.9 24.1 0.00 0.18 0.00 83 1014.7
20260905145012 9 239 14.5 25.7 0.00 0.18 0.00 82 1014.6
20260905144526 10 240 16.1 27.4 0.00 0.18 0.00 81 1014.4
20260905144014 10 243 17.7 32.2 0.00 0.18 0.00 81 1014.3
20260905143511 10 241 17.7 32.2 0.00 0.18 0.00 80 1014.3
20260905143027 10 241 22.5 32.2 0.00 0.18 0.00 79 1014.1
20260905142513 10 255 20.9 32.2 0.00 0.18 0.00 80 1014.0
20260905142005 10 270 11.3 25.7 0.00 0.18 0.00 80 1013.9
20260905141507 10 255 16.1 25.7 0.00 0.18 0.00 80 1013.9
20260905141007 10 254 9.7 22.5 0.00 0.18 0.00 80 1013.8
20260905140511 10 241 12.9 22.5 0.00 0.18 0.00 79 1013.7
20260905140005 9 266 12.9 22.5 0.00 0.18 0.00 80 1013.7
20260905135510 9 260 16.1 22.5 0.00 0.18 0.18 80 1013.6
20260905135006 9 256 11.3 19.3 0.00 0.18 0.18 80 1013.4
20260905134521 9 257 12.9 19.3 0.00 0.18 0.18 80 1013.3
20260905134010 9 262 8.0 19.3 0.00 0.18 0.18 79 1013.2
20260905133504 9 256 11.3 19.3 0.00 0.18 0.18 79 1013.1
20260905133006 9 294 11.3 29.0 0.00 0.18 0.18 79 1013.1
20260905132505 9 287 14.5 29.0 0.00 0.18 0.18 78 1013.1
20260905132005 9 273 16.1 22.5 0.00 0.18 0.18 78 1013.0
20260905131508 9 278 11.3 16.1 0.00 0.18 0.18 78 1012.9
20260905131010 9 269 8.0 17.7 0.00 0.18 0.18 77 1012.9
20260905130508 9 273 9.7 17.7 0.00 0.18 0.18 77 1012.8
20260905130014 9 262 11.3 24.1 0.00 0.18 0.18 78 1012.7
20260905125504 9 268 12.9 24.1 0.00 0.18 0.18 77 1012.7
20260905125009 9 277 17.7 24.1 0.00 0.18 0.18 76 1012.7
20260905124512 9 274 14.5 24.1 0.00 0.18 0.18 75 1012.6
20260905124004 10 314 12.9 22.5 0.00 0.18 0.18 74 1012.5
20260905123512 10 247 11.3 17.7 0.00 0.18 0.18 73 1012.4
20260905123008 10 308 8.0 17.7 0.00 0.18 0.18 73 1012.4
20260905122514 10 312 9.7 17.7 0.00 0.18 0.18 72 1012.3
20260905122005 10 306 8.0 17.7 0.00 0.18 0.18 73 1012.3
20260905121507 10 285 9.7 17.7 0.00 0.18 0.18 73 1012.2
20260905121007 10 303 8.0 17.7 0.00 0.18 0.18 73 1012.2
20260905120508 10 289 12.9 24.1 0.00 0.18 0.18 73 1012.1
20260905120010 10 295 12.9 24.1 0.00 0.18 0.18 72 1012.0
20260905115509 10 278 12.9 19.3 0.00 0.18 0.18 72 1012.0
20260905115011 10 299 11.3 19.3 0.00 0.18 0.18 73 1012.1
20260905114514 10 285 12.9 20.9 0.00 0.18 0.18 72 1012.0
20260905114011 10 303 12.9 20.9 0.00 0.18 0.18 72 1011.8
20260905113507 10 286 16.1 20.9 0.00 0.18 0.18 72 1011.8
20260905113018 10 297 12.9 24.1 0.00 0.18 0.18 72 1011.6
20260905112510 10 302 11.3 24.1 0.00 0.18 0.18 72 1011.5
20260905112002 10 309 12.9 19.3 0.00 0.18 0.18 73 1011.3
20260905111505 10 305 11.3 22.5 0.00 0.18 0.18 73 1011.2
20260905111005 10 312 12.9 22.5 0.00 0.18 0.18 72 1011.2
20260905110504 10 302 14.5 22.5 0.00 0.18 0.18 72 1011.1
20260905110002 10 310 12.9 19.3 0.00 0.18 0.18 72 1010.9
20260905105508 10 314 12.9 19.3 0.00 0.18 0.18 72 1010.9
20260905105004 10 333 12.9 20.9 0.00 0.18 0.18 71 1010.7
20260905104501 10 314 12.9 20.9 0.00 0.18 0.18 71 1010.7
20260905104004 10 316 12.9 20.9 0.00 0.18 0.18 71 1010.7
20260905103505 10 341 12.9 29.0 0.00 0.18 0.18 71 1010.7
20260905103015 10 324 12.9 29.0 0.00 0.18 0.18 71 1010.7
20260905102505 10 339 14.5 25.7 0.00 0.18 0.18 71 1010.6
20260905102003 10 299 17.7 25.7 0.00 0.18 0.18 71 1010.6
20260905101505 10 314 16.1 24.1 0.00 0.18 0.18 72 1010.4
20260905101003 10 306 11.3 24.1 0.00 0.18 0.18 72 1010.3
20260905100510 10 320 12.9 24.1 0.00 0.18 0.18 72 1010.1
20260905100006 10 305 16.1 22.5 0.00 0.18 0.18 72 1009.9
20260905095504 10 308 11.3 29.0 0.00 0.18 0.18 72 1009.9
20260905095006 10 296 17.7 29.0 0.00 0.18 0.18 73 1010.1
20260905094508 10 293 14.5 24.1 0.00 0.18 0.18 76 1009.8
20260905094003 9 336 11.3 22.5 0.00 0.18 0.18 77 1009.7
20260905093508 9 335 14.5 22.5 0.00 0.18 0.18 77 1009.5
20260905093005 9 318 11.3 22.5 0.00 0.18 0.18 78 1009.4
20260905092504 9 11 12.9 22.5 0.00 0.18 0.18 78 1009.3
20260905092004 10 333 14.5 24.1 0.00 0.18 0.18 78 1009.0
20260905091505 9 338 12.9 24.1 0.00 0.18 0.18 78 1009.0
20260905091006 9 339 9.7 17.7 0.00 0.18 0.18 78 1008.9
20260905090503 9 21 8.0 16.1 0.00 0.18 0.18 79 1008.8
20260905090005 9 5 6.4 16.1 0.00 0.18 0.18 79 1008.7
20260905085505 9 16 9.7 17.7 0.00 0.18 0.18 78 1008.7
20260905085002 9 4 9.7 17.7 0.00 0.18 0.18 79 1008.7
20260905084508 9 339 9.7 19.3 0.00 0.18 0.18 79 1008.4
20260905084006 9 345 12.9 27.4 0.00 0.18 0.18 78 1008.2
20260905083502 9 328 14.5 30.6 0.00 0.18 0.18 78 1007.9
20260905083011 9 343 17.7 30.6 0.00 0.18 0.18 78 1007.8
20260905082511 9 344 19.3 27.4 0.00 0.18 0.18 78 1007.8
20260905082010 9 335 17.7 25.7 0.00 0.18 0.18 78 1007.9
20260905081510 9 333 16.1 22.5 0.00 0.18 0.18 78 1007.9
20260905081007 10 352 16.1 22.5 0.00 0.18 0.18 77 1007.9
20260905080504 10 333 12.9 25.7 0.00 0.18 0.18 76 1007.8
20260905080004 10 324 14.5 25.7 0.00 0.18 0.18 76 1007.9
20260905075504 10 326 16.1 24.1 0.00 0.18 0.18 75 1007.8
20260905075005 10 332 14.5 29.0 0.00 0.18 0.18 74 1007.8
20260905074506 10 306 17.7 37.0 0.00 0.18 0.18 73 1007.8
20260905074007 10 289 20.9 37.0 0.00 0.18 0.18 73 1007.8
20260905073507 10 312 20.9 33.8 0.00 0.18 0.18 74 1007.8
20260905073008 10 319 19.3 40.2 0.00 0.18 0.18 71 1007.8
20260905072508 11 304 27.4 38.6 0.00 0.18 0.18 68 1007.7
20260905072004 11 304 22.5 30.6 0.00 0.18 0.18 72 1007.5
20260905071505 11 279 17.7 33.8 0.00 0.18 0.18 72 1007.1
20260905071010 11 308 22.5 33.8 0.00 0.18 0.18 70 1007.3
20260905070503 12 308 19.3 35.4 0.00 0.18 0.18 69 1007.0
20260905070020 12 308 22.5 40.2 0.00 0.18 0.18 67 1007.1
20260905065509 13 299 25.7 40.2 0.00 0.18 0.18 65 1006.8
20260905065006 13 310 19.3 33.8 0.00 0.18 0.18 66 1006.7
20260905064508 13 321 19.3 37.0 0.00 0.18 0.18 66 1006.6
20260905064004 13 313 22.5 41.8 0.00 0.18 0.18 64 1006.5
20260905063504 14 308 25.7 41.8 0.00 0.18 0.18 63 1006.4
20260905063007 14 311 24.1 38.6 0.00 0.18 0.18 63 1006.3
20260905062508 13 305 16.1 35.4 0.00 0.18 0.18 65 1006.3
20260905062003 13 303 24.1 40.2 0.00 0.18 0.18 64 1006.2
20260905061512 14 292 25.7 40.2 0.00 0.18 0.18 64 1006.2
20260905061003 14 306 27.4 38.6 0.00 0.18 0.18 62 1006.2
20260905060507 14 301 27.4 40.2 0.00 0.18 0.18 62 1006.3
20260905060009 14 297 22.5 40.2 0.00 0.18 0.18 63 1006.1
20260905055512 14 291 25.7 35.4 0.00 0.18 0.18 60 1006.3
20260905055010 15 307 22.5 38.6 0.00 0.18 0.18 63 1006.2
20260905054518 14 322 30.6 38.6 0.00 0.18 0.18 61 1006.1
20260905054017 15 287 19.3 45.1 0.00 0.18 0.18 62 1006.0
20260905053506 15 308 27.4 45.1 0.00 0.18 0.18 61 1006.0
20260905053005 14 317 25.7 43.5 0.00 0.18 0.18 59 1005.9
20260905052504 15 297 29.0 51.5 0.00 0.18 0.18 61 1005.9
20260905052006 14 316 27.4 51.5 0.00 0.18 0.18 60 1005.9
20260905051509 15 300 24.1 48.3 0.00 0.18 0.18 61 1005.8
20260905051007 14 308 32.2 45.1 0.00 0.18 0.18 60 1005.6
20260905050506 15 330 27.4 38.6 0.00 0.18 0.18 60 1005.7
20260905050013 15 288 22.5 45.1 0.00 0.18 0.18 62 1005.7
20260905045511 15 303 27.4 45.1 0.00 0.18 0.18 59 1005.5
20260905045012 15 314 24.1 45.1 0.00 0.18 0.18 60 1005.3
20260905044523 15 294 27.4 45.1 0.00 0.18 0.18 60 1005.5
20260905044005 15 304 32.2 49.9 0.00 0.18 0.18 59 1005.4
20260905043514 15 310 35.4 49.9 0.00 0.18 0.18 59 1005.4
20260905043014 15 330 24.1 53.1 0.00 0.18 0.18 60 1005.5
20260905042506 15 314 32.2 53.1 0.00 0.18 0.18 58 1005.4
20260905042014 15 306 30.6 51.5 0.00 0.18 0.18 59 1005.3
20260905041519 15 324 29.0 43.5 0.00 0.18 0.18 61 1005.4
20260905041018 15 322 24.1 45.1 0.00 0.18 0.18 61 1005.2
20260905040505 15 316 25.7 49.9 0.00 0.18 0.18 62 1005.2
20260905040011 15 297 32.2 49.9 0.00 0.18 0.18 61 1005.1
20260905035506 15 282 24.1 37.0 0.00 0.18 0.18 63 1005.2
20260905035010 15 298 24.1 37.0 0.00 0.18 0.18 63 1005.3
20260905034507 15 310 17.7 40.2 0.00 0.18 0.18 64 1005.3
20260905034011 15 308 24.1 45.1 0.00 0.18 0.18 63 1005.3
20260905033507 15 310 27.4 45.1 0.00 0.18 0.18 62 1005.2
20260905033034 15 295 30.6 51.5 0.00 0.18 0.18 63 1005.4
20260905032514 15 290 30.6 51.5 0.00 0.18 0.18 58 1005.5
20260905032010 15 313 27.4 51.5 0.00 0.18 0.18 60 1005.5
20260905031531 15 317 38.6 51.5 0.00 0.18 0.18 58 1005.4
20260905031014 15 312 33.8 53.1 0.00 0.18 0.18 59 1005.5
20260905030514 15 316 37.0 48.3 0.00 0.18 0.18 59 1005.3
20260905030032 15 312 30.6 45.1 0.00 0.18 0.18 60 1005.4
20260905025510 16 339 22.5 46.7 0.00 0.18 0.18 62 1005.3
20260905025018 15 310 29.0 46.7 0.00 0.18 0.18 60 1005.4
20260905024514 15 318 29.0 45.1 0.00 0.18 0.18 60 1005.3
20260905024006 15 299 24.1 41.8 0.00 0.18 0.18 62 1005.3
20260905023510 15 334 27.4 41.8 0.00 0.18 0.18 64 1005.3
20260905023018 13 297 22.5 43.5 0.00 0.18 0.18 72 1005.5
20260905022511 13 312 22.5 49.9 0.00 0.18 0.18 71 1005.5
20260905022015 13 301 19.3 49.9 0.00 0.18 0.18 68 1005.7
20260905021516 14 313 20.9 33.8 0.00 0.18 0.18 68 1005.7
20260905021014 14 329 19.3 38.6 0.00 0.18 0.18 69 1005.7
20260905020513 14 287 20.9 46.7 0.00 0.18 0.18 69 1005.7
20260905020012 15 304 27.4 46.7 0.00 0.18 0.18 68 1005.7
20260905015520 15 335 22.5 43.5 0.00 0.18 0.18 69 1005.7
20260905015012 15 304 27.4 45.1 0.00 0.18 0.18 68 1005.8
20260905014535 15 323 30.6 46.7 0.00 0.18 0.18 68 1005.7
20260905014015 15 320 29.0 48.3 0.00 0.18 0.18 70 1005.7
20260905013508 15 314 30.6 48.3 0.00 0.18 0.18 68 1005.8
20260905013016 15 311 27.4 45.1 0.00 0.18 0.18 69 1005.9
20260905012509 15 302 24.1 43.5 0.00 0.18 0.18 70 1006.0
20260905012020 15 316 25.7 43.5 0.00 0.18 0.18 70 1006.0
20260905011522 14 297 29.0 43.5 0.00 0.18 0.18 70 1006.2
20260905011013 14 311 24.1 41.8 0.00 0.18 0.18 72 1006.4
20260905010513 14 343 25.7 45.1 0.00 0.18 0.18 72 1006.0
20260905010040 13 308 24.1 45.1 0.00 0.18 0.18 75 1006.0
20260905005509 13 316 22.5 49.9 0.00 0.18 0.18 79 1005.9
20260905005019 13 323 25.7 49.9 0.00 0.18 0.18 79 1005.8
20260905004526 13 320 27.4 45.1 0.00 0.18 0.18 80 1005.8